Regional Weather Roundup
Issued by NWS Mobile, AL

Home | Current Version | Previous Version | Text Only | Print | Product List | Glossary On
Versions: 1 2 3 4 5 6 7 8 9 10 11 12 13 14 15 16 17 18 19 20 21 22 23 24 25 26 27 28 29 30 31 32 33 34 35 36 37 38 39 40 41 42 43 44 45 46 47
689
ASUS44 KMOB 092012
RWRMOB
REGIONAL WEATHER ROUNDUP
NATIONAL WEATHER SERVICE MOBILE AL
200 PM CST TUE FEB 09 2016

NOTE: "FAIR" INDICATES FEW OR NO CLOUDS BELOW 12,000 FEET WITH NO
      SIGNIFICANT WEATHER AND/OR OBSTRUCTIONS TO VISIBILITY.

  * THESE STATIONS ARE PART OF THE UNIVERSITY OF SOUTH ALABAMA
    MESONET AND ARE NOT UNDER NWS OR FAA QUALITY CONTROL.

ALZ061>064-092100-
COASTAL ALABAMA

CITY           SKY/WX    TMP DP  RH WIND       PRES   REMARKS
MOBILE REG APT SUNNY     53  16  23 W17G26    30.01F
BROOKLEY FIELD SUNNY     54  17  23 W13G25    30.02F
USA CAMPUS*    NOT AVBL
DOG RIVER*     NOT AVBL


CITY           SKY/WX    TMP DP  RH WIND       PRES   REMARKS
MOUNT VERNON*  NOT AVBL
SARALAND*      NOT AVBL
BAY MINETTE*   NOT AVBL
LOXLEY*        NOT AVBL
ROBERTSDALE*   NOT AVBL
FAIRHOPE*      NOT AVBL
ELBERTA*       NOT AVBL
FOLEY*         NOT AVBL
GRAND BAY*     NOT AVBL
DAUPHIN ISLND* NOT AVBL
BON SCOUR NWR* NOT AVBL
GULF SHORES    SUNNY     52  22  31 W18G26    30.01F

$$

ALZ051>060-092100-
INTERIOR SOUTHWEST AND SOUTH CENTRAL ALABAMA

CITY           SKY/WX    TMP DP  RH WIND       PRES   REMARKS
GREENVILLE     SUNNY     47  10  22 NW16G25   29.92S
EVERGREEN      SUNNY     50  12  21 W15G33    29.96S
CASTLEBERRY*   NOT AVBL
ATMORE*        NOT AVBL
DIXIE*         NOT AVBL
ANDALUSIA/OPP  SUNNY     54  14  20 NW18G32   29.94S
ANDALUSIA*     NOT AVBL
FLORALA APT    SUNNY     50  15  24 VRB6      29.96S
FLORALA*       NOT AVBL

$$

FLZ001>006-092100-
WESTERN FLORIDA PANHANDLE

CITY           SKY/WX    TMP DP  RH WIND       PRES   REMARKS
PENSACOLA      SUNNY     53  15  22 W14G24    29.98F
NAS PENSACOLA  SUNNY     52  12  20 W10G29    29.99F
MILTON         SUNNY     51  14  22 W28G36    29.98S
WHTNG S FIELD  SUNNY     55  18  23 NW20G25   29.98S


CITY           SKY/WX    TMP DP  RH WIND       PRES   REMARKS
WALNUT HILL*   NOT AVBL
JAY*           NOT AVBL
DUKE FIELD     MOSUNNY   52  11  19 W23G32    29.94F
CRESTVIEW      SUNNY     52  13  21 NW21G32   29.97F
VALPARAISO     MOSUNNY   53  13  20 W18G26    29.95F
DESTIN         SUNNY     54  18  24 W10G20    29.97F

$$

MSZ076-079-092100-
INTERIOR SOUTHEAST MISSISSIPPI

CITY           SKY/WX    TMP DP  RH WIND       PRES   REMARKS
LEAKESVILLE*   NOT AVBL
AGRICOLA*      NOT AVBL

$$

MARINE OBSERVATIONS

STATION/POSITION TIME  TEMP    WIND        PRES    WAVE
                       AIR SEA DIR/SP/G            HT/PER
                 (UTC) (F)     (DEG/KT/KT) (MB)    (FT/S)
PASCAGOULA       1900   53     280/ 13/ 17 1016.9
PETIT BOIS ISLND 1900   49     270/ 19/ 25 1018.2
KATRINA CUT      1900   48     270/ 22       N/A
CEDAR POINT      1900   48     290/ 16     1016.6
E DAUPHIN ISLAND 2000   51     260/ 13/ 18 1016.4F
MIDDLE BAY LIGHT 1900          290/ 21     1015.9
USCG MOBILE BAY  1900   50 54  320/ 11/ 17 1017.0
STATE DOCKS      1900   55 53              1016.2
MEAHER PARK      1900   49     290/ 15     1016.6
WEEKS BAY        1800   48                   N/A
FORT MORGAN      1900   47     290/ 19/ 24 1016.5
12 S ORANGE BCH  1950   50 63  270/ 21/ 25 1015.8F   5/ 6
PENSACOLA BAY    1900   52 50  310/ 10/ 17 1016.0

$$

SELECTED LOCATIONS ACROSS THE REGION

CITY           SKY/WX    TMP DP  RH WIND       PRES   REMARKS
NEW ORLEANS    MOSUNNY   57  12  17 NW23G36   30.09F
GULFPORT       SUNNY     55  14  19 NW14G32   30.02F
PASCAGOULA AP  SUNNY     56  16  20 W13G23    30.02F
PASCAGOULA*    NOT AVBL
HATTIESBURG    SUNNY     54  12  18 NW23G36   30.02F
LAUREL         SUNNY     52  14  22 W8G21     30.01F
MERIDIAN       SUNNY     49  14  24 NW17G30   29.97F
JACKSON        MOSUNNY   51  16  24 W22G33    30.01F
MONTGOMERY     SUNNY     46  17  31 W20G29    29.94S
TROY           MOSUNNY   47  16  29 W14G26    29.93S
KINSTON*       NOT AVBL
GENEVA*        NOT AVBL
ASHFORD*       NOT AVBL
DOTHAN         SUNNY     49  14  24 W20G26    29.93F
PANAMA CITY    SUNNY     52  17  25 W16G28    29.93F

$$





USA.gov is the U.S. government's official web portal to all federal, state and local government web resources and services.